Погода в Иркутске

Погода в Иркутске : погода сейчас, прогноз погоды и архив. Всё, что Вы хотите узнать о погоде в Иркутске!

Поиск расширенной информации на нашем сайте:

Полезная информация: ТехноПоинт Иркутск

Другие новости

Новости СМИ2

Главная страница сайта

Новости сайта

02.10.2013

Напоминаем, что на нашем новом сайте вы можете получить высокодетализированные прогнозы погоды по пунктам России, СНГ и мира (включающие важные для авиации метеовеличины, такие как направление и скорость ветра, видимость, явления погоды, количество и форма облачности, нижняя и верхняя граница облачности), а также ознакомиться с разнообразными материалами по авиационной метеорологии и подборкой полезных ссылок на эту тему.

Сайт Метеоцентр.Азия посвящён разработке технологий оптимизации авиаметеорологического обслуживания, включая проектирование и перспективное создание нескольких автоматизированных авиаметеорологических систем:
- система выпуска высокодетальных прогностических карт явлений погоды для нижнего воздушного пространства по России и ближнему зарубежью;
- система верификации прогнозов TAF (выпускаемых синоптиками официальных АМСГ РФ и ближнего зарубежья) и AUTOTAF (выпускаемых сайтом Метеоцентр.Азия) - выявление ошибок, онлайн-сопоставление с фактической погодой METAR, автоматическое внесение коррективов в прогнозы при резком отклонении фактической погоды от прогноза, подсчёт оправдываемости прогнозов по элементам и в целом;
- система обработки, анализа и отображения авиаметеорологической информации для применения провайдерами метеорологической информации.

Рекомендуем: Комплексное бухгалтерское обслуживание

Погода в Иркутске - сегодня

Время (UTC), дата Ветер
(°,м/с) 
Видим.   Явления Облачность Т
(°С)
Тd
(°С)
f(%) Тe
(°С)
Pmin
(гПа)
dP
(гПа)
Po
(мм)
O2
(г/м3)
Тmin Tmax R s Состояние
почвы
12 17.02.17 140 (ЮВ) 10 км    ясно 
-14.4 -19.9 63 -17  1024.3  -1.7  722  309    -8.4       
15 17.02.17 160 (Ю) 10 км    3/0 верхняя 
[Ci]
-16.4 -20.8 69 -20  1019.6  -5  719  310           
18 17.02.17 150 (ЮВ) 10 км    10/0 средняя, верхняя 
[As trans|Cs]
-16.2 -20.9 67 -20  1014.1  -5.1  715  308           
21 17.02.17 160 (Ю) 10 км    10/0 средняя 
[As op]
-14.4 -19.9 63 -18  1009.5  -3.8  712  304           
00 18.02.17 180 (Ю) 2{10}  10 км    10/0 средняя 
[As op]
-13.5 -19 63 -16  1009.3  -0.1  712  303  -16.8      31  равномерный
сухой снег
100% 
03 18.02.17 160 (Ю) 3{10}  1000 м  ливневой снег  10/10 600 м кучево-дожд. 
[Cb cap]
-13.1 -15 86 -17  1011.1  1.8  713  303           
06 18.02.17 260 (З) 20000 м  слаб. ливневой снег  10/8 600 м кучево-дожд., средняя 
[Cb cap|As trans]
-9.3 -12.4 78 -9  1015.2  4.7  717  300           
09 18.02.17 300 (СЗ) 4{13}  20000 м  слаб. ливневой снег  10/10 600 м кучево-дожд. 
[Cb cap]
-8.4 -13.5 67 -12  1019.8  4.5  720  301           
12 18.02.17 300 (СЗ) 4-11{13}  10 км  позёмок{ливн. осадки}  3/3 600 м кучево-дожд. 
[Cb cap]
-9.1 -14.8 63 -13  1024.6  4.4  723  303    -7.7     
15 18.02.17 290 (З) 2{12}  10 км    ясно 
-11 -16.3 65 -13  1028.3  3.1  726  306           
18 18.02.17 270 (З) 10 км    ясно 
-14.1 -17.3 77 -14  1031.1  1.9  727  310           
21 18.02.17 тихо ()   10 км    ясно 
-15.2 -17.4 83 -15  1032.3  0.9  728  312           
00 19.02.17 110 (В) 10 км    3/0 средняя 
[Ac trans]
-19.3 -21.4 83 -20  1034.5  1.1  729  318  -19.3      32  равномерный
сухой снег
100% 
03 19.02.17 120 (ЮВ) 20000 м    ясно 
-14.2 -18.1 72 -16  1033.5  0.2  729  311  -19.4         
06 19.02.17 110 (В) 20000 м    ясно 
-6 -16.3 44 -7  1029.2  -2.2  727  301           
09 19.02.17 140 (ЮВ) 20000 м    ясно 
-5.1 -15.5 44 -6  1027  -1.8  726  299           
12 19.02.17 140 (ЮВ) 10 км    ясно 
-8 -17.6 46 -10  1026.6  -1.1  725  302    -3.4       
15 19.02.17 140 (ЮВ) 10 км    ясно 
-11.9 -16.9 66 -15  1025.9  -1.5  724  306           
18 19.02.17 140 (ЮВ) 6-10{11}  10 км    ясно 
-13.3 -17.7 69 -19  1024.3  -1.9  722  307           
21 19.02.17 140 (ЮВ) 3{10}  10 км    ясно 
-13.5 -18 69 -17  1022.3  -1.9  721  307           
00 20.02.17 140 (ЮВ) 10 км    10/10 600 м 
[Sc]
-12.7 -17.7 66 -16  1022.1  721  306  -14.6      32  равномерный
сухой снег
100% 
03 20.02.17 130 (ЮВ) 20000 м    10/0 средняя, верхняя 
[Ac As|Cs]
-10 -16.4 59 -12  1024.6  723  304           
06 20.02.17 350 (С) 20000 м    4/0 средняя, верхняя 
[Ac trans|Ci ing]
-7.2 -15.2 53 -7  1026.5  2.4  725  301           
09 20.02.17 310 (СЗ) 20000 м    10/0 средняя, верхняя 
[Ac lent|Ci fib]
-6.2 -14.1 54 -8  1027.3  726  300           
12 20.02.17 тихо ()   н/о  дымка  ясно 
-9.9 -13.4 76 -10  1028.8  0.6  726  305    -5.5       
Время (UTC), дата Ветер
(°,м/с) 
Видим.   Явления Облачность Т
(°С)
Тd
(°С)
f(%) Тe
(°С)
Pmin
(гПа)
dP
(гПа)
Po
(мм)
O2
(г/м3)
Тmin Tmax R s Состояние
почвы

Для получения пояснительной информации подведите курсор к названию столбца.

ПОГОДА в Иркутске - архив

Всё, что Вы хотите узнать о погоде в Иркутске - удобно и подробно!

Выберите нужную дату (начиная с 1 января 2015* года) и нажмите кнопку "Найти".
Будут отображены архивные сводки погоды по пункту Иркутск, начиная с указанной даты.


Отображать данные в формате CSV (для использования в таблицах Excel)


Внимание! Наш архив погоды предназначен исключительно для личного некоммерческого использования в познавательных целях. Если Вам необходимы официальные справки о состоянии погоды (для производственных, юридических, коммерческих и т.п. целей), обращайтесь в органы Росгидромета.

*Примечание: данная дата относится к архиву по метеостанциям СССР (Россия, СНГ, Балтия).
Архив по метеостанциям Зарубежной Европы и Азии (кроме Китая) хранится 10 дней, по другим регионам земного шара (Китай, Африка, Америка, Австралия, Океания) - 1 день.

Иркутск - район местоположения метеостанции


Название, широта, долгота, высота метеостанции:
Иркутск (город) 52.3°ш. 104.3°д. 485 м над ур. моря [Российская Федерация]

Дополнительная информация

В oтличие oт бoльшинства пoгoдных сайтoв мы публикуем пoдрoбную метеoинфoрмацию в детальнoм прoфессиoнальнoм фoрмате.

Характеристики температуры и влажнoсти вoздуха измеряются на высoте 2 м в тени вдали oт зданий и деревьев.
Скoрoсть ветра измеряется на высoте 10 м (на урoвне рoста челoвека скoрoсть ветра ниже в 1.5-2 раза). Если метеoстанция нахoдится в гoрoде или в лесу, тo скoрoсть ветра занижена на 2-4 м/с пo сравнению с oткрытым местoм. Скoрoсть ветра над акватoриями крупных рек и oзёр, а также на вершинах хoлмoв на 2-5 м/с выше, чем в oбычных услoвиях.
Атмoсфернoе давление в разных тoчках местнoсти мoжет значительнo oтличаться oт давления на метеoстанции, в зависимoсти oт услoвий рельефа (при пoдъёме на 10 м давление пoнижается примернo на 1 мм рт.ст.).